Location: *
(32.8140°S, 174.6161°E)
Time: 22:43:39
(UTC+00:00)

ATLAS 5 CENTAUR R/B - Pass Details

Date: 10 December 2019
Orbit: 550 x 1109 km, 63.4° (Epoch: 20 January)

Event Time Altitude Azimuth Distance (km) Brightness Sun altitude
Rises 12:15:50 0° 210° (SSW) 3,256 6.0 -34.3°
Reaches altitude 10° 12:18:25 10° 208° (SSW) 2,233 5.0 -34.3°
Enters shadow 12:20:43 26° 206° (SSW) 1,352 3.7 -34.3°
